Regional Weather Roundup
Issued by NWS Nashville, TN

Current Version | Previous Version | Text Only | Print | Product List | Glossary On
Versions: 1 2 3 4 5 6 7 8 9 10 11 12 13 14 15 16 17 18 19 20 21 22 23 24 25 26 27 28 29 30 31 32 33 34 35 36 37 38 39 40 41 42 43 44 45 46 47 48 49 50
000
ASUS44 KOHX 222115
RWROHX
MIDDLE TENNESSEE HOURLY WEATHER ROUNDUP
NATIONAL WEATHER SERVICE NASHVILLE TN
300 PM CST MON DEC 22 2014

NOTE: "FAIR" INDICATES FEW OR NO CLOUDS BELOW 12,000 FEET WITH
NO SIGNIFICANT WEATHER AND/OR OBSTRUCTIONS TO VISIBILITY.

* THESE REPORTS ARE NOT UNDER NWS QUALITY CONTROL AND MAY NOT
  REPORT WEATHER SUCH AS PRECIPITATION AND FOG.


TNZ005>011-023>034-057-059-062>066-078-080-222200
...NORTHERN MIDDLE TENNESSEE...

CITY           SKY/WX    TMP DP  RH WIND       PRES   REMARKS
CLARKSVILLE    CLOUDY    53  47  79 S12G22    29.72F
CROSSVILLE     CLOUDY    49  45  86 SE7       29.83F
GALLATIN       CLOUDY    51  50  97 S5        29.78S
DICKSON          N/A     50  46  87 SE7       29.72F
LEBANON        CLOUDY    51  49  93 SE6       29.77S
LIVINGSTON     CLOUDY    52  46  79 S6        29.81S
NASHVILLE      CLOUDY    52  48  87 SE9       29.77F
WEST NASHVILLE CLOUDY    52  52 100 SE8       29.76F
PORTLAND       CLOUDY    52  46  82 SE10      29.75F
SMYRNA         CLOUDY    52  50  93 S12       29.79S
SPARTA         PTSUNNY   52  46  82 S12       29.80S
$$
TNZ056-058-060-061-075>077-079-093>097-222200
...SOUTHERN MIDDLE TENNESSEE...

CITY           SKY/WX    TMP DP  RH WIND       PRES   REMARKS
COLUMBIA       CLOUDY   N/A N/A N/A SE7       29.74F
LEWISBURG      CLOUDY    51  48  89 SE7       29.77F
MCMINNVILLE    CLOUDY    52  52 100 CALM      29.80S
MURFREESBORO   CLOUDY    51  48  89 SE9       29.78F
SHELBYVILLE    CLOUDY    52  48  87 SE10      29.79F
TULLAHOMA      CLOUDY    48  46  93 SE9       29.80S
WINCHESTER     CLOUDY    48  46  93 SE20      29.80S
$$


...KEY TO REMARKS...
VSB - VISIBILITY IN MILES
WCI - WIND CHILL INDEX
HX  - HEAT INDEX



USA.gov is the U.S. government's official web portal to all federal, state and local government web resources and services.